QPF
0.01 0.02 0.04 0.32 0.36 0.30 0.30 0.41 0.35 0.35 0.25 0.11 0.01 0.00 0.00 0.00 0.00 0.00 0.00 0.00 0.00 0.00 0.00 0.00 0.00 0.00 0.00 0.00 0.00 0.00 0.00 0.00 0.00 0.00 0.00 0.00 0.00 0.00 0.00 0.00 0.00 0.00 0.00 0.00 0.00
0.00 0.00 0.01 0.04 0.15 0.24 0.31 0.28 0.19 0.25 0.24 0.05 0.01 0.00 0.00 0.00 0.00 0.00 0.00 0.00 0.00 0.00 0.00 0.00 0.00 0.00 0.00 0.00 0.00 0.00 0.00 0.00 0.00 0.00 0.00 0.00 0.00 0.00 0.00 0.00 0.00 0.00 0.00 0.00 0.00
0.00 0.00 0.00 0.00 0.04 0.08 0.13 0.20 0.20 0.26 0.14 0.03 0.00 0.00 0.00 0.00 0.00 0.00 0.00 0.00 0.00 0.00 0.00 0.00 0.00 0.00 0.00 0.00 0.00 0.00 0.00 0.00 0.00 0.00 0.00 0.00 0.00 0.00 0.00 0.00 0.00 0.00 0.00 0.00 0.00
0.00 0.00 0.00 0.00 0.01 0.04 0.06 0.06 0.13 0.11 0.11 0.05 0.00 0.00 0.00 0.00 0.00 0.00 0.00 0.00 0.00 0.00 0.00 0.00 0.00 0.00 0.00 0.00 0.00 0.00 0.00 0.00 0.00 0.00 0.00 0.00 0.00 0.00 0.00 0.00 0.00 0.00 0.00 0.00 0.00
0.00 0.00 0.00 0.00 0.00 0.01 0.03 0.04 0.10 0.08 0.02 0.01 0.01 0.00 0.00 0.00 0.00 0.00 0.00 0.00 0.00 0.00 0.00 0.00 0.00 0.00 0.00 0.00 0.00 0.00 0.00 0.00 0.00 0.00 0.00 0.00 0.00 0.00 0.00 0.00 0.00 0.00 0.00 0.00 0.00
0.00 0.00 0.00 0.00 0.00 0.01 0.02 0.02 0.03 0.01 0.00 0.00 0.00 0.00 0.00 0.00 0.00 0.00 0.00 0.00 0.00 0.00 0.00 0.00 0.00 0.00 0.00 0.00 0.00 0.00 0.00 0.00 0.00 0.00 0.00 0.00 0.00 0.00 0.00 0.00 0.00 0.00 0.00 0.00 0.00
0.02 0.02 0.03 0.04 0.02 0.03 0.04 0.01 0.00 0.01 0.00 0.00 0.00 0.00 0.00 0.00 0.00 0.00 0.00 0.00 0.00 0.00 0.00 0.00 0.00 0.00 0.00 0.00 0.00 0.00 0.00 0.00 0.00 0.00 0.00 0.00 0.00 0.00 0.00 0.00 0.00 0.00 0.00 0.00 0.00
0.01 0.01 0.02 0.02 0.01 0.01 0.01 0.01 0.01 0.00 0.00 0.00 0.00 0.00 0.00 0.00 0.00 0.00 0.00 0.00 0.00 0.00 0.00 0.00 0.00 0.00 0.00 0.00 0.00 0.00 0.00 0.00 0.00 0.00 0.00 0.00 0.00 0.00 0.00 0.00 0.00 0.00 0.00 0.00 0.00
0.00 0.00 0.00 0.00 0.00 0.00 0.00 0.00 0.00 0.00 0.00 0.00 0.00 0.00 0.00 0.00 0.00 0.00 0.00 0.00 0.00 0.00 0.00 0.00 0.00 0.00 0.00 0.00 0.00 0.00 0.00 0.00 0.00 0.00 0.00 0.00 0.00 0.00 0.00 0.00 0.00 0.00 0.00 0.00 0.00
0.00 0.00 0.00 0.00 0.00 0.00 0.00 0.00 0.00 0.00 0.00 0.00 0.00 0.00 0.00 0.00 0.00 0.00 0.00 0.00 0.00 0.00 0.00 0.00 0.00 0.00 0.00 0.00 0.00 0.00 0.00 0.00 0.00 0.00 0.00 0.00 0.00 0.00 0.00 0.00 0.00 0.00 0.00 0.00 0.00
0.00 0.00 0.00 0.00 0.00 0.00 0.00 0.00 0.00 0.00 0.00 0.00 0.00 0.00 0.00 0.00 0.00 0.00 0.00 0.00 0.00 0.00 0.00 0.00 0.00 0.00 0.00 0.00 0.00 0.00 0.00 0.00 0.00 0.00 0.00 0.00 0.00 0.00 0.00 0.00 0.00 0.00 0.00 0.00 0.00
0.00 0.00 0.00 0.00 0.00 0.00 0.00 0.00 0.00 0.00 0.00 0.00 0.00 0.00 0.00 0.00 0.00 0.00 0.00 0.00 0.00 0.00 0.00 0.00 0.00 0.00 0.00 0.00 0.00 0.00 0.00 0.00 0.00 0.00 0.00 0.00 0.00 0.00 0.00 0.00 0.00 0.00 0.00 0.00 0.00
0.00 0.00 0.00 0.00 0.00 0.00 0.00 0.00 0.00 0.00 0.00 0.00 0.00 0.00 0.00 0.00 0.00 0.00 0.00 0.00 0.00 0.00 0.00 0.00 0.00 0.00 0.00 0.00 0.00 0.00 0.00 0.00 0.00 0.00 0.00 0.00 0.00 0.00 0.00 0.00 0.00 0.00 0.00 0.00 0.00
0.00 0.00 0.00 0.00 0.00 0.00 0.00 0.00 0.00 0.00 0.00 0.00 0.00 0.00 0.00 0.00 0.00 0.00 0.00 0.00 0.00 0.00 0.00 0.00 0.00 0.00 0.00 0.00 0.00 0.00 0.00 0.00 0.00 0.00 0.00 0.00 0.00 0.00 0.00 0.00 0.00 0.00 0.00 0.00 0.00
0.00 0.00 0.00 0.00 0.00 0.00 0.00 0.00 0.00 0.00 0.00 0.00 0.00 0.00 0.00 0.00 0.00 0.00 0.00 0.00 0.00 0.00 0.00 0.00 0.00 0.00 0.00 0.00 0.00 0.00 0.00 0.00 0.00 0.00 0.00 0.00 0.00 0.00 0.00 0.00 0.00 0.00 0.00 0.00 0.00
0.00 0.00 0.00 0.00 0.00 0.00 0.00 0.00 0.00 0.00 0.00 0.00 0.00 0.00 0.00 0.00 0.00 0.00 0.00 0.00 0.00 0.00 0.00 0.00 0.00 0.00 0.00 0.00 0.00 0.00 0.00 0.00 0.00 0.00 0.00 0.00 0.00 0.00 0.00 0.00 0.00 0.00 0.00 0.00 0.00
0.00 0.00 0.00 0.00 0.00 0.00 0.00 0.00 0.00 0.00 0.00 0.00 0.00 0.00 0.00 0.00 0.00 0.00 0.00 0.00 0.00 0.00 0.00 0.00 0.00 0.00 0.00 0.00 0.00 0.00 0.00 0.00 0.00 0.00 0.00 0.00 0.00 0.00 0.00 0.00 0.00 0.00 0.00 0.00 0.00
0.00 0.00 0.00 0.00 0.00 0.00 0.00 0.00 0.00 0.00 0.00 0.00 0.00 0.00 0.00 0.00 0.00 0.00 0.00 0.00 0.00 0.00 0.00 0.00 0.00 0.00 0.00 0.00 0.00 0.00 0.00 0.00 0.00 0.00 0.00 0.00 0.00 0.00 0.00 0.00 0.00 0.00 0.00 0.00 0.00
0.00 0.00 0.00 0.00 0.00 0.00 0.00 0.00 0.00 0.00 0.00 0.00 0.00 0.00 0.00 0.00 0.00 0.00 0.00 0.00 0.00 0.00 0.00 0.00 0.00 0.00 0.00 0.00 0.00 0.00 0.00 0.00 0.00 0.00 0.00 0.00 0.00 0.00 0.00 0.00 0.00 0.00 0.00 0.00 0.00
0.00 0.00 0.00 0.00 0.00 0.00 0.00 0.00 0.00 0.00 0.00 0.00 0.00 0.00 0.00 0.00 0.00 0.00 0.00 0.00 0.00 0.00 0.00 0.00 0.00 0.00 0.00 0.00 0.00 0.00 0.00 0.00 0.00 0.00 0.00 0.00 0.00 0.00 0.00 0.00 0.00 0.00 0.00 0.00 0.00
0.00 0.00 0.00 0.00 0.00 0.00 0.00 0.00 0.00 0.00 0.00 0.00 0.00 0.00 0.00 0.00 0.00 0.00 0.00 0.00 0.00 0.00 0.00 0.00 0.00 0.00 0.00 0.00 0.00 0.00 0.00 0.00 0.00 0.00 0.00 0.00 0.00 0.00 0.00 0.00 0.00 0.00 0.00 0.00 0.00
0.00 0.00 0.00 0.00 0.00 0.00 0.00 0.00 0.00 0.00 0.00 0.00 0.00 0.00 0.00 0.00 0.00 0.00 0.00 0.00 0.00 0.00 0.00 0.00 0.00 0.00 0.00 0.00 0.00 0.00 0.00 0.00 0.00 0.00 0.00 0.00 0.00 0.00 0.00 0.00 0.00 0.00 0.00 0.00 0.00
0.00 0.00 0.00 0.00 0.00 0.00 0.00 0.00 0.00 0.00 0.00 0.00 0.00 0.00 0.00 0.00 0.00 0.00 0.00 0.00 0.00 0.00 0.00 0.00 0.00 0.00 0.00 0.00 0.00 0.00 0.00 0.00 0.00 0.00 0.00 0.00 0.00 0.00 0.00 0.00 0.00 0.00 0.00 0.00 0.00
0.00 0.00 0.00 0.00 0.00 0.00 0.00 0.00 0.00 0.00 0.00 0.00 0.00 0.00 0.00 0.00 0.00 0.00 0.00 0.00 0.00 0.00 0.00 0.00 0.00 0.00 0.00 0.00 0.00 0.00 0.00 0.00 0.00 0.00 0.00 0.00 0.00 0.00 0.00 0.00 0.00 0.00 0.00 0.00 0.00
0.00 0.00 0.00 0.00 0.00 0.00 0.00 0.00 0.00 0.00 0.00 0.00 0.00 0.00 0.00 0.00 0.00 0.00 0.00 0.00 0.00 0.00 0.00 0.00 0.00 0.00 0.00 0.00 0.00 0.00 0.00 0.00 0.00 0.00 0.00 0.00 0.00 0.00 0.00 0.00 0.00 0.00 0.00 0.00 0.00
0.00 0.00 0.00 0.00 0.00 0.00 0.00 0.00 0.00 0.00 0.00 0.00 0.00 0.00 0.00 0.00 0.00 0.00 0.00 0.00 0.00 0.00 0.00 0.00 0.00 0.00 0.00 0.00 0.00 0.00 0.00 0.00 0.00 0.00 0.00 0.00 0.00 0.00 0.00 0.00 0.00 0.00 0.00 0.00 0.00
0.00 0.00 0.00 0.00 0.00 0.00 0.00 0.00 0.00 0.00 0.00 0.00 0.00 0.00 0.00 0.00 0.00 0.00 0.00 0.00 0.00 0.00 0.00 0.00 0.00 0.00 0.00 0.00 0.00 0.00 0.00 0.00 0.00 0.00 0.00 0.00 0.00 0.00 0.00 0.00 0.00 0.00 0.00 0.00 0.00
MSLP
1012.72 1012.01 1011.47 1011.04 1010.74 1010.64 1010.48 1010.54 1010.31 1010.95 1012.28 1012.33 1013.03 1013.46 1014.24 1014.40 1014.90 1015.09 1015.03 1015.45 1015.04 1015.01 1015.10 1014.77 1014.52 1014.47 1014.34 1014.83 1015.12 1014.92 1014.06 1014.14 1014.79 1014.77 1015.72 1016.65 1016.44 1017.25 1017.38 1016.92 1017.42 1017.75 1017.70 1018.43 1018.85
1013.45 1012.71 1012.32 1011.82 1011.59 1011.43 1011.34 1011.03 1011.51 1011.87 1012.06 1012.68 1013.27 1013.77 1014.22 1014.68 1014.53 1015.13 1016.02 1015.60 1015.27 1015.20 1014.96 1014.34 1014.29 1014.30 1014.68 1015.18 1015.41 1014.94 1014.79 1015.77 1016.63 1016.47 1016.33 1017.03 1016.97 1017.19 1017.23 1017.22 1017.65 1018.09 1018.65 1018.86 1019.02
1013.96 1013.38 1013.00 1012.41 1012.20 1012.01 1011.91 1012.10 1011.73 1012.11 1012.52 1013.06 1013.47 1013.80 1014.65 1014.52 1014.39 1015.89 1016.18 1015.84 1015.42 1015.33 1015.07 1014.65 1014.39 1014.44 1014.98 1015.57 1016.24 1016.30 1016.47 1017.29 1017.72 1017.77 1017.59 1017.64 1017.75 1018.01 1017.53 1017.71 1017.94 1018.09 1018.80 1019.19 1019.36
1013.96 1013.75 1013.34 1013.02 1012.75 1012.64 1012.52 1012.65 1012.75 1012.99 1013.23 1013.53 1013.94 1014.33 1014.69 1014.61 1015.22 1016.09 1016.24 1015.93 1015.48 1015.44 1015.19 1014.66 1014.37 1014.66 1015.18 1015.91 1016.95 1017.17 1018.25 1018.23 1018.70 1018.78 1018.43 1018.42 1018.47 1018.40 1018.47 1018.94 1019.22 1019.39 1019.55 1019.60 1019.59
1014.54 1014.09 1013.70 1013.34 1013.24 1013.26 1013.16 1012.91 1012.71 1013.06 1013.61 1014.07 1014.58 1014.91 1014.70 1014.66 1015.75 1016.13 1016.22 1015.87 1015.49 1015.44 1015.28 1014.90 1014.60 1015.03 1015.46 1016.40 1017.03 1017.54 1018.68 1019.13 1019.52 1019.47 1019.43 1019.24 1019.12 1019.05 1019.07 1019.54 1019.73 1019.92 1020.04 1019.95 1020.02
1015.21 1014.45 1014.03 1013.74 1013.85 1013.88 1013.85 1013.63 1013.44 1013.78 1014.40 1014.58 1014.79 1014.87 1014.40 1015.00 1016.47 1016.33 1016.17 1015.82 1015.48 1015.39 1015.58 1015.39 1015.22 1015.52 1016.27 1017.22 1017.41 1018.41 1018.92 1019.49 1019.88 1020.01 1020.07 1019.59 1019.56 1019.48 1019.59 1019.76 1019.82 1019.96 1020.01 1020.15 1020.31
1015.68 1015.52 1015.15 1015.10 1014.64 1014.56 1014.40 1014.18 1014.43 1014.60 1014.70 1014.69 1014.91 1014.71 1014.73 1016.86 1016.82 1016.32 1016.11 1015.98 1015.85 1015.52 1015.74 1016.35 1016.15 1015.84 1017.00 1017.83 1018.89 1018.81 1019.01 1019.44 1020.14 1020.31 1020.30 1020.36 1019.64 1019.38 1019.78 1019.90 1019.74 1019.80 1019.96 1020.13 1020.27
1016.84 1016.47 1016.03 1015.67 1015.48 1015.35 1015.29 1015.00 1015.04 1015.09 1014.96 1015.08 1015.17 1014.83 1015.94 1017.05 1016.74 1016.35 1016.16 1016.14 1016.07 1016.13 1016.26 1016.88 1016.65 1016.88 1017.79 1018.61 1018.93 1018.84 1018.88 1019.13 1020.47 1020.53 1020.56 1020.08 1019.01 1019.37 1019.83 1019.77 1019.52 1019.49 1019.48 1019.76 1019.92
1017.42 1017.15 1016.94 1016.61 1016.45 1016.28 1016.18 1015.93 1015.71 1015.40 1015.38 1015.34 1015.26 1015.18 1016.97 1017.02 1016.96 1017.18 1016.84 1016.67 1016.50 1016.71 1016.87 1017.03 1017.02 1018.14 1018.81 1018.54 1018.84 1019.19 1018.73 1019.23 1020.47 1021.07 1020.74 1020.03 1018.90 1019.16 1019.54 1019.56 1019.20 1019.16 1019.17 1019.50 1019.84
1018.40 1017.92 1017.51 1017.22 1017.06 1016.90 1016.77 1016.61 1016.09 1015.51 1015.67 1015.74 1016.01 1015.94 1017.80 1018.21 1018.00 1017.85 1017.40 1017.13 1016.86 1016.87 1016.94 1017.49 1017.97 1018.48 1019.10 1019.12 1018.93 1018.97 1019.34 1020.00 1020.12 1021.23 1020.81 1019.93 1018.89 1018.65 1018.99 1019.13 1018.84 1018.89 1019.09 1019.36 1019.67
1019.16 1018.93 1018.61 1018.18 1017.92 1017.56 1017.42 1017.19 1017.14 1017.34 1017.32 1018.26 1018.37 1017.97 1018.55 1018.62 1018.12 1017.98 1017.90 1017.36 1017.22 1017.60 1018.27 1019.16 1019.09 1020.00 1020.55 1020.40 1020.03 1019.65 1019.83 1020.30 1021.30 1022.02 1021.40 1020.05 1018.92 1018.14 1018.44 1018.73 1018.64 1018.63 1018.93 1019.10 1019.38
1019.49 1019.21 1019.13 1018.92 1018.68 1018.27 1018.23 1019.10 1020.15 1020.23 1019.50 1019.17 1018.84 1018.82 1019.12 1019.11 1018.39 1018.47 1018.03 1018.06 1018.21 1018.90 1019.45 1020.11 1021.15 1022.11 1021.92 1021.49 1020.96 1020.73 1020.87 1021.45 1022.17 1022.51 1021.92 1020.51 1018.73 1017.73 1017.66 1017.91 1018.39 1018.49 1018.76 1018.96 1019.17
1019.74 1019.43 1019.26 1018.88 1018.73 1018.93 1019.51 1020.44 1020.57 1020.09 1019.40 1019.94 1019.98 1019.84 1020.07 1019.65 1019.80 1019.82 1019.40 1019.58 1019.68 1020.06 1020.40 1021.01 1022.86 1022.91 1022.65 1022.52 1022.16 1022.66 1022.53 1022.74 1022.90 1022.89 1022.64 1021.45 1018.74 1017.43 1017.83 1018.18 1018.68 1018.92 1018.92 1019.04 1019.12
1020.27 1019.64 1019.20 1018.85 1019.01 1019.93 1020.19 1020.68 1020.39 1020.15 1020.03 1021.14 1020.41 1020.64 1020.39 1020.20 1020.35 1020.59 1020.48 1020.44 1020.87 1021.55 1021.87 1022.80 1023.71 1023.49 1023.43 1023.64 1023.80 1023.89 1024.33 1024.13 1023.94 1023.58 1023.20 1022.45 1019.59 1017.70 1017.27 1017.78 1018.34 1018.41 1018.66 1018.65 1018.87
1020.66 1020.16 1019.72 1019.49 1019.93 1020.20 1020.70 1020.33 1020.22 1020.03 1020.63 1022.35 1021.45 1021.12 1020.88 1020.58 1021.16 1020.79 1021.08 1020.70 1021.48 1022.26 1022.69 1024.36 1024.36 1024.22 1024.34 1025.00 1024.84 1025.03 1025.16 1024.89 1024.80 1024.49 1024.23 1022.96 1021.81 1017.90 1017.70 1017.19 1017.30 1017.65 1018.04 1018.34 1018.62
1020.90 1020.51 1020.27 1019.88 1020.16 1020.92 1020.82 1020.33 1019.77 1019.93 1022.32 1022.58 1022.01 1021.60 1021.32 1021.56 1021.64 1021.53 1021.36 1021.44 1022.50 1022.56 1023.30 1024.52 1025.16 1025.20 1025.42 1025.74 1025.41 1025.68 1025.45 1025.23 1025.14 1024.93 1024.53 1023.67 1022.49 1018.56 1017.33 1017.08 1017.13 1017.38 1017.75 1018.12 1018.30
1020.82 1020.61 1020.42 1020.53 1020.53 1020.59 1020.56 1020.33 1020.33 1021.27 1023.77 1023.11 1022.71 1022.48 1022.36 1022.43 1022.25 1022.17 1022.24 1022.41 1022.84 1023.22 1024.08 1024.81 1025.51 1025.74 1025.81 1025.67 1025.89 1025.78 1025.31 1025.05 1024.95 1024.79 1024.22 1024.42 1023.05 1018.41 1017.38 1017.28 1017.32 1017.43 1017.62 1017.82 1017.95
1020.56 1020.53 1020.63 1020.83 1020.92 1020.89 1020.52 1020.08 1020.92 1023.16 1023.38 1023.30 1023.01 1022.84 1022.90 1023.11 1023.06 1022.93 1022.95 1023.29 1023.62 1023.59 1024.55 1024.88 1026.14 1026.00 1026.12 1025.98 1025.91 1026.00 1025.77 1025.27 1024.61 1024.32 1023.81 1023.91 1021.19 1017.69 1017.29 1017.35 1017.52 1017.56 1017.60 1017.65 1017.72
1020.39 1020.44 1020.46 1020.78 1020.92 1020.86 1020.25 1020.92 1022.46 1023.04 1023.14 1023.08 1023.08 1023.04 1023.18 1023.22 1023.10 1023.09 1023.45 1023.60 1023.95 1023.90 1024.00 1024.54 1025.71 1026.26 1026.30 1026.17 1026.22 1026.04 1025.78 1025.77 1025.18 1025.00 1024.08 1021.47 1019.67 1017.60 1017.11 1017.10 1017.18 1017.21 1017.33 1017.23 1017.17
1020.36 1020.54 1020.76 1021.02 1020.86 1020.48 1020.26 1022.07 1023.01 1023.31 1023.31 1023.23 1023.03 1023.18 1023.06 1023.28 1023.18 1023.27 1023.50 1023.94 1023.97 1024.13 1024.12 1024.48 1025.37 1026.12 1026.28 1026.29 1026.21 1025.87 1025.84 1025.76 1025.20 1024.16 1022.68 1020.63 1019.71 1017.96 1016.97 1016.65 1016.58 1016.71 1016.83 1016.82 1016.97
1020.53 1020.47 1020.88 1021.04 1020.69 1020.19 1021.42 1022.60 1023.12 1023.38 1023.27 1023.20 1023.27 1023.31 1023.44 1023.49 1023.53 1023.61 1023.81 1024.11 1024.02 1024.25 1024.27 1024.43 1024.69 1026.13 1026.23 1025.69 1025.37 1025.88 1025.42 1025.25 1024.89 1024.22 1022.81 1021.10 1018.55 1017.03 1016.80 1016.65 1016.51 1016.47 1016.58 1016.75 1016.83
1020.66 1020.64 1021.14 1021.08 1020.85 1021.66 1022.29 1022.85 1023.27 1023.51 1023.41 1023.40 1023.44 1023.54 1023.59 1023.72 1023.66 1023.77 1023.80 1023.90 1024.10 1024.18 1024.12 1024.58 1024.62 1024.99 1025.10 1025.41 1025.38 1025.05 1024.73 1024.62 1024.06 1023.89 1023.14 1022.11 1018.75 1016.87 1016.80 1016.86 1016.89 1016.73 1016.79 1016.70 1016.66
1020.90 1021.17 1021.02 1020.85 1021.37 1022.32 1022.96 1023.09 1023.28 1023.43 1023.42 1023.31 1023.34 1023.47 1023.76 1023.75 1023.99 1024.05 1024.22 1024.33 1024.40 1024.34 1024.33 1024.49 1024.44 1024.55 1024.81 1025.39 1025.39 1025.06 1024.49 1024.45 1024.19 1023.93 1022.37 1021.58 1017.88 1016.91 1016.86 1016.77 1016.75 1016.68 1016.58 1016.44 1016.34
1021.28 1021.47 1021.34 1021.48 1022.60 1022.24 1022.72 1023.15 1023.41 1023.54 1023.44 1023.52 1023.50 1023.49 1023.68 1023.82 1024.04 1024.10 1024.42 1024.57 1024.65 1024.66 1024.72 1024.66 1024.38 1023.96 1023.59 1023.63 1023.78 1024.24 1023.76 1023.86 1023.85 1023.12 1021.30 1019.32 1017.54 1016.43 1016.28 1016.25 1016.32 1016.39 1016.25 1016.05 1015.82
1022.22 1023.21 1023.38 1022.88 1022.98 1022.69 1022.64 1023.10 1023.21 1023.47 1023.66 1023.62 1023.54 1023.37 1023.34 1023.54 1023.76 1023.82 1024.21 1024.41 1024.74 1024.74 1024.86 1024.78 1024.31 1023.88 1023.35 1023.26 1023.28 1022.95 1022.75 1022.76 1022.35 1021.32 1020.40 1017.66 1017.31 1015.20 1015.86 1015.72 1015.65 1015.82 1015.74 1015.57 1015.25
1023.14 1023.27 1023.93 1023.60 1023.56 1023.22 1023.20 1023.03 1023.15 1023.47 1023.44 1023.56 1023.72 1023.59 1023.64 1023.32 1023.04 1023.22 1023.61 1023.91 1023.80 1024.58 1024.58 1024.70 1024.13 1023.83 1022.97 1022.43 1022.32 1021.80 1021.33 1021.23 1020.84 1020.47 1019.21 1018.46 1016.29 1015.56 1014.58 1014.80 1014.85 1015.08 1015.27 1015.04 1014.79
1024.12 1023.89 1023.31 1023.70 1023.56 1023.21 1023.27 1023.46 1023.28 1023.47 1023.78 1023.68 1023.61 1023.83 1023.98 1023.86 1023.75 1023.69 1023.64 1023.65 1023.78 1023.96 1024.17 1024.39 1024.08 1023.65 1022.24 1022.16 1021.53 1019.83 1018.24 1018.74 1018.92 1018.53 1017.97 1017.58 1014.03 1014.69 1014.12 1014.34 1014.48 1014.56 1014.64 1014.43 1014.25
Thickness
5504 5507 5510 5512 5514 5516 5521 5526 5536 5540 5534 5540 5539 5553 5565 5580 5588 5600 5609 5618 5632 5641 5649 5661 5670 5675 5683 5680 5684 5689 5694 5691 5686 5697 5691 5692 5697 5694 5697 5702 5700 5699 5703 5700 5700
5498 5503 5506 5511 5512 5516 5523 5532 5531 5533 5534 5536 5540 5549 5565 5576 5589 5596 5602 5615 5628 5636 5645 5657 5662 5671 5670 5671 5675 5684 5688 5678 5675 5683 5690 5686 5692 5691 5694 5695 5692 5692 5692 5694 5695
5498 5501 5504 5510 5511 5517 5521 5522 5531 5534 5536 5536 5541 5549 5560 5576 5587 5583 5591 5606 5621 5632 5640 5651 5660 5664 5661 5663 5661 5664 5669 5664 5663 5670 5678 5679 5680 5680 5689 5685 5689 5688 5685 5685 5686
5504 5502 5506 5510 5513 5515 5520 5523 5526 5530 5533 5535 5539 5545 5558 5573 5579 5581 5590 5603 5617 5626 5636 5646 5655 5654 5654 5653 5651 5651 5647 5655 5654 5657 5666 5668 5671 5672 5674 5672 5674 5675 5677 5679 5680
5503 5506 5509 5512 5513 5514 5517 5524 5532 5534 5535 5534 5535 5542 5559 5570 5573 5582 5590 5602 5614 5622 5629 5638 5646 5647 5648 5645 5649 5648 5641 5643 5644 5649 5652 5658 5658 5662 5666 5666 5668 5668 5668 5671 5673
5496 5506 5511 5513 5512 5515 5517 5523 5530 5532 5529 5531 5536 5545 5560 5565 5568 5579 5590 5601 5612 5620 5622 5632 5638 5642 5637 5633 5642 5636 5637 5635 5638 5640 5642 5651 5652 5656 5658 5661 5662 5663 5664 5666 5666
5496 5497 5503 5503 5510 5514 5517 5524 5527 5530 5534 5535 5539 5549 5557 5551 5564 5578 5588 5597 5607 5618 5620 5621 5630 5639 5632 5626 5625 5630 5630 5633 5629 5634 5637 5637 5650 5655 5652 5654 5658 5659 5660 5660 5662
5492 5494 5500 5506 5510 5514 5517 5523 5527 5531 5536 5537 5542 5553 5549 5552 5564 5577 5587 5595 5604 5611 5617 5617 5626 5625 5623 5622 5623 5625 5634 5635 5621 5628 5631 5640 5653 5648 5645 5649 5654 5657 5661 5659 5659
5494 5495 5497 5502 5507 5512 5516 5519 5525 5533 5537 5541 5546 5553 5542 5553 5562 5570 5581 5589 5599 5604 5610 5616 5620 5612 5614 5618 5618 5617 5629 5631 5620 5616 5622 5633 5648 5645 5643 5643 5650 5654 5656 5654 5652
5489 5492 5498 5504 5507 5511 5515 5519 5527 5537 5539 5542 5545 5553 5540 5543 5554 5563 5575 5586 5594 5601 5606 5607 5609 5611 5609 5608 5612 5615 5615 5615 5626 5613 5618 5629 5640 5645 5642 5642 5648 5650 5649 5648 5646
5487 5486 5490 5497 5503 5509 5513 5524 5529 5531 5532 5525 5526 5534 5535 5542 5555 5562 5569 5583 5591 5591 5588 5586 5594 5588 5590 5595 5602 5612 5615 5614 5604 5598 5606 5624 5632 5643 5644 5641 5643 5645 5643 5642 5640
5492 5491 5490 5494 5497 5507 5514 5515 5509 5516 5524 5524 5528 5529 5531 5537 5551 5557 5570 5576 5581 5574 5578 5580 5571 5569 5577 5586 5596 5604 5607 5602 5594 5591 5599 5614 5629 5644 5645 5644 5640 5640 5637 5636 5634
5503 5503 5501 5503 5509 5510 5512 5510 5512 5518 5534 5524 5521 5522 5524 5535 5535 5544 5557 5559 5565 5566 5570 5574 5559 5563 5572 5576 5587 5578 5589 5588 5591 5588 5586 5596 5629 5640 5632 5627 5624 5623 5627 5627 5626
5512 5514 5514 5516 5517 5511 5517 5516 5519 5522 5532 5519 5524 5523 5525 5529 5534 5537 5545 5553 5553 5552 5557 5554 5551 5559 5565 5563 5565 5578 5563 5568 5573 5579 5591 5582 5608 5635 5640 5626 5618 5620 5619 5622 5620
5521 5521 5524 5525 5522 5522 5518 5523 5524 5531 5542 5514 5515 5521 5524 5530 5527 5535 5538 5549 5546 5541 5552 5537 5547 5554 5555 5546 5552 5557 5553 5560 5557 5557 5553 5577 5570 5620 5617 5628 5625 5620 5617 5615 5612
5527 5527 5528 5531 5530 5524 5524 5529 5537 5551 5519 5507 5517 5518 5525 5522 5524 5529 5535 5541 5537 5544 5541 5532 5532 5539 5541 5538 5547 5543 5551 5549 5543 5542 5567 5554 5561 5602 5619 5619 5616 5614 5610 5607 5605
5534 5534 5534 5531 5535 5531 5531 5536 5549 5535 5499 5513 5515 5517 5518 5518 5523 5525 5526 5529 5535 5535 5526 5531 5523 5529 5533 5540 5538 5541 5549 5566 5564 5561 5578 5506 5535 5601 5609 5605 5605 5605 5603 5601 5600
5544 5541 5538 5535 5533 5531 5534 5547 5540 5505 5505 5512 5516 5521 5516 5517 5520 5524 5527 5528 5525 5530 5512 5534 5523 5524 5526 5533 5534 5525 5530 5554 5560 5566 5570 5514 5567 5603 5602 5597 5594 5594 5594 5594 5595
5554 5549 5547 5540 5537 5535 5548 5530 5526 5516 5518 5520 5519 5516 5523 5523 5526 5529 5524 5527 5523 5527 5538 5537 5521 5517 5519 5526 5527 5526 5535 5528 5525 5515 5534 5574 5578 5597 5596 5592 5592 5592 5591 5592 5593
5562 5557 5552 5545 5543 5545 5548 5519 5518 5515 5516 5519 5523 5522 5529 5524 5530 5530 5529 5524 5526 5526 5528 5529 5521 5516 5517 5520 5523 5527 5528 5526 5523 5542 5554 5576 5562 5580 5584 5590 5594 5593 5591 5591 5588
5567 5571 5557 5552 5551 5558 5534 5525 5521 5517 5521 5525 5522 5522 5523 5525 5525 5525 5526 5523 5526 5523 5527 5528 5533 5512 5516 5523 5527 5517 5526 5525 5528 5531 5543 5554 5582 5580 5566 5584 5586 5589 5586 5585 5585
5572 5576 5560 5556 5564 5544 5540 5535 5524 5522 5522 5522 5522 5520 5524 5519 5525 5519 5527 5527 5526 5527 5531 5524 5529 5522 5526 5520 5521 5527 5530 5529 5534 5528 5528 5528 5556 5580 5576 5573 5572 5575 5578 5582 5584
5578 5572 5566 5564 5566 5548 5535 5533 5529 5528 5527 5528 5527 5526 5519 5524 5525 5521 5514 5520 5520 5523 5524 5523 5526 5527 5521 5515 5511 5511 5524 5523 5522 5515 5531 5533 5569 5570 5568 5569 5571 5572 5578 5582 5582
5578 5577 5575 5564 5545 5557 5548 5539 5535 5527 5530 5527 5528 5528 5527 5527 5521 5525 5513 5518 5516 5520 5517 5521 5524 5529 5544 5534 5532 5510 5523 5524 5519 5523 5542 5547 5560 5573 5576 5575 5575 5576 5579 5581 5582
5567 5555 5549 5565 5557 5553 5552 5544 5541 5538 5530 5530 5531 5534 5534 5531 5529 5529 5518 5520 5515 5517 5517 5518 5518 5525 5531 5530 5528 5532 5534 5531 5520 5537 5542 5572 5560 5580 5576 5577 5578 5578 5579 5579 5582
5569 5565 5543 5548 5543 5552 5545 5551 5549 5539 5541 5539 5535 5537 5533 5539 5543 5537 5532 5528 5533 5519 5523 5519 5526 5524 5521 5537 5534 5532 5540 5540 5544 5543 5552 5555 5569 5579 5589 5585 5582 5581 5579 5579 5584
5544 5547 5559 5537 5546 5557 5555 5546 5549 5544 5536 5537 5539 5537 5532 5536 5534 5534 5535 5533 5533 5533 5528 5524 5526 5529 5541 5532 5540 5557 5571 5562 5556 5558 5558 5554 5588 5585 5587 5584 5583 5583 5581 5583 5587